Weather History for KHTL - September, 2013

Change the Weather History Date:

Saturday, September 21, 2013

  Actual Average Record
Temperature  
Mean Temperature 53 °F 55 °F  
Max Temperature 61 °F 67 °F 88 °F (1931)
Min Temperature 44 °F 44 °F 30 °F (1973)
Degree Days  
Heating Degree Days 12 10  
Month to date heating degree days 141 146  
Since 1 July heating degree days 266 273  
Cooling Degree Days 0 0  
Month to date cooling degree days 35 18  
Year to date cooling degree days 381 283  
Growing Degree Days 4 (Base 50)    
Moisture  
Dew Point 50 °F    
Average Humidity 82    
Maximum Humidity 100    
Minimum Humidity 64    
Precipitation  
Precipitation 0.04 in 0.11 in 2.00 in (1947)
Month to date precipitation 1.21 2.16  
Year to date precipitation 21.31 21.28  
Sea Level Pressure  
Sea Level Pressure 29.78 in    
Wind  
Wind Speed 9 mph (NW)    
Max Wind Speed 21 mph    
Max Gust Speed 28 mph    
Visibility 9 miles    
Events Rain    
T = Trace of Precipitation, MM = Missing Value Source: NWS Daily Summary

Daily Weather History Graph

Daily Weather History Graph

Search for Another Location

Airport or City:

Trip Planner

Search our weather history database for the weather conditions in past years. The results will help you decide how hot, cold, wet, or windy it might be!

Date:

Astronomy

Sep. 21, 2013 Rise Set
Actual Time 7:24 AM EDT 7:37 PM EDT
Civil Twilight 6:55 AM EDT 8:06 PM EDT
Nautical Twilight 6:21 AM EDT 8:40 PM EDT
Astronomical Twilight 5:46 AM EDT 9:15 PM EDT
Moon 8:40 PM EDT (9/21) 9:49 AM EDT (9/21)
Length of Visible Light 13h 10m
Length of Day
12h 12m
Waning Gibbous, 94% of the Moon is Illuminated
Sep 21
Waning Gibbous
Sep 26
Last Quarter
Oct 4
New
Oct 11
First Quarter
Oct 18
Full

Hourly Weather History & Observations

Time (EDT) Temp. Windchill Dew Point Humidity Pressure Visibility Wind Dir Wind Speed Gust Speed Precip Events Conditions
12:53 AM 61.0 °F - 57.9 °F 90% 29.72 in 10.0 mi West 6.9 mph - N/A   Clear
1:43 AM 60.8 °F - 57.2 °F 88% 29.71 in 10.0 mi West 5.8 mph - N/A   Mostly Cloudy
1:53 AM 61.0 °F - 57.9 °F 90% 29.70 in 10.0 mi WSW 5.8 mph - N/A   Overcast
2:34 AM 60.8 °F - 57.2 °F 88% 29.71 in 10.0 mi West 6.9 mph - N/A   Overcast
2:53 AM 60.1 °F - 57.0 °F 90% 29.71 in 10.0 mi WNW 6.9 mph - N/A   Overcast
3:20 AM 59.0 °F - 57.2 °F 94% 29.71 in 10.0 mi NW 6.9 mph - N/A   Overcast
3:31 AM 57.2 °F - 55.4 °F 94% 29.71 in 10.0 mi NW 8.1 mph - N/A   Overcast
3:53 AM 57.9 °F - 55.0 °F 90% 29.71 in 10.0 mi NNW 10.4 mph - N/A   Overcast
4:53 AM 57.0 °F - 54.0 °F 89% 29.71 in 10.0 mi North 4.6 mph - N/A   Overcast
5:53 AM 55.9 °F - 53.1 °F 90% 29.72 in 10.0 mi NNW 5.8 mph - N/A   Overcast
6:01 AM 55.4 °F - 53.6 °F 94% 29.72 in 10.0 mi NNW 3.5 mph - N/A   Overcast
6:24 AM 55.4 °F - 53.6 °F 94% 29.72 in 9.0 mi NNW 6.9 mph - N/A   Overcast
6:34 AM 55.4 °F - 53.6 °F 94% 29.72 in 6.0 mi NW 5.8 mph - 0.00 in Rain Light Rain
6:53 AM 55.0 °F - 54.0 °F 96% 29.73 in 10.0 mi NW 5.8 mph - 0.00 in   Overcast
7:38 AM 53.6 °F - 53.6 °F 100% 29.73 in 10.0 mi NNW 5.8 mph - N/A   Overcast
7:53 AM 54.0 °F - 53.1 °F 97% 29.73 in 10.0 mi NW 3.5 mph - N/A   Overcast
8:07 AM 55.4 °F - 53.6 °F 94% 29.74 in 6.0 mi NNW 6.9 mph - N/A   Overcast
8:14 AM 53.6 °F - 53.6 °F 100% 29.74 in 1.8 mi North 6.9 mph - 0.01 in Rain Rain
8:26 AM 53.6 °F - 51.8 °F 94% 29.74 in 3.0 mi North 8.1 mph - 0.04 in Rain Light Rain
8:53 AM 54.0 °F - 52.0 °F 93% 29.75 in 8.0 mi NNW 4.6 mph - 0.04 in Rain Light Rain
9:03 AM 53.6 °F - 51.8 °F 94% 29.75 in 10.0 mi North 5.8 mph - 0.00 in   Overcast
9:20 AM 55.4 °F - 53.6 °F 94% 29.75 in 10.0 mi NNW 10.4 mph - 0.00 in   Mostly Cloudy
9:31 AM 55.4 °F - 53.6 °F 94% 29.75 in 10.0 mi NNW 10.4 mph - 0.00 in   Mostly Cloudy
9:53 AM 55.0 °F - 52.0 °F 89% 29.76 in 7.0 mi NNW 10.4 mph - 0.00 in Rain Light Rain
10:30 AM 53.6 °F - 51.8 °F 94% 29.76 in 10.0 mi NNW 8.1 mph - 0.00 in   Mostly Cloudy
10:53 AM 55.9 °F - 50.0 °F 80% 29.77 in 10.0 mi NNW 13.8 mph - 0.00 in   Mostly Cloudy
11:00 AM 55.4 °F - 50.0 °F 82% 29.76 in 10.0 mi NNW 11.5 mph - N/A   Mostly Cloudy
11:33 AM 57.2 °F - 48.2 °F 72% 29.77 in 10.0 mi NW 12.7 mph - N/A   Scattered Clouds
11:53 AM 61.0 °F - 48.9 °F 64% 29.77 in 10.0 mi WNW 8.1 mph - N/A   Mostly Cloudy
12:09 PM 57.2 °F - 48.2 °F 72% 29.77 in 10.0 mi NW 12.7 mph - N/A   Overcast
12:28 PM 55.4 °F - 48.2 °F 77% 29.77 in 10.0 mi NW 11.5 mph - 0.00 in   Overcast
12:53 PM 60.1 °F - 48.0 °F 64% 29.77 in 10.0 mi NW 11.5 mph 20.7 mph 0.00 in   Scattered Clouds
1:11 PM 55.4 °F - 50.0 °F 82% 29.78 in 10.0 mi NNW 11.5 mph 19.6 mph N/A   Overcast
1:51 PM 55.4 °F - 48.2 °F 77% 29.78 in 10.0 mi NW 13.8 mph 26.5 mph N/A   Overcast
1:53 PM 55.0 °F - 48.0 °F 77% 29.79 in 10.0 mi NNW 11.5 mph 26.5 mph N/A   Mostly Cloudy
2:25 PM 53.6 °F - 48.2 °F 82% 29.79 in 6.0 mi NNW 11.5 mph - 0.00 in Rain Light Rain
2:41 PM 53.6 °F - 48.2 °F 82% 29.80 in 10.0 mi NNW 17.3 mph 27.6 mph 0.00 in Rain Light Rain
2:51 PM 53.6 °F - 46.4 °F 77% 29.80 in 10.0 mi NW 12.7 mph 23.0 mph 0.00 in   Overcast
2:53 PM 53.1 °F - 46.9 °F 80% 29.81 in 10.0 mi NW 10.4 mph 20.7 mph 0.00 in   Overcast
3:53 PM 55.0 °F - 45.0 °F 69% 29.81 in 10.0 mi NNW 13.8 mph 24.2 mph N/A   Overcast
4:27 PM 51.8 °F - 44.6 °F 76% 29.81 in 8.0 mi NNW 20.7 mph 27.6 mph 0.00 in Rain Light Rain
4:38 PM 51.8 °F - 46.4 °F 82% 29.81 in 10.0 mi NW 12.7 mph 21.9 mph 0.00 in   Overcast
4:53 PM 51.1 °F - 46.0 °F 83% 29.83 in 10.0 mi NNW 15.0 mph - 0.00 in Rain Light Rain
5:00 PM 51.8 °F - 46.4 °F 82% 29.82 in 9.0 mi NW 15.0 mph 21.9 mph 0.00 in Rain Light Rain
5:53 PM 50.0 °F - 46.0 °F 86% 29.85 in 10.0 mi NW 10.4 mph - 0.00 in   Overcast
6:53 PM 50.0 °F - 45.0 °F 83% 29.86 in 10.0 mi NNW 12.7 mph 18.4 mph 0.00 in   Overcast
7:53 PM 48.9 °F - 44.1 °F 83% 29.86 in 10.0 mi NW 11.5 mph - N/A   Overcast
8:53 PM 46.9 °F - 44.1 °F 90% 29.89 in 10.0 mi NNW 8.1 mph - 0.00 in   Overcast
9:29 PM 46.4 °F 42.4 °F 44.6 °F 93% 29.88 in 10.0 mi NW 8.1 mph - N/A   Overcast
9:53 PM 46.9 °F - 43.0 °F 86% 29.90 in 10.0 mi NNW 9.2 mph 19.6 mph N/A   Overcast
10:12 PM 46.4 °F 41.9 °F 42.8 °F 87% 29.88 in 10.0 mi NNW 9.2 mph - N/A   Overcast
10:53 PM 46.9 °F - 41.0 °F 80% 29.91 in 10.0 mi NW 10.4 mph - N/A   Overcast
11:53 PM 46.0 °F 41.9 °F 42.1 °F 86% 29.92 in 10.0 mi NW 8.1 mph - N/A   Mostly Cloudy